Terminal Aerodrome Forecast
Issued by NWS

Home | Current Version | Previous Version | Text Only | Print | Product List | Glossary On
Versions: 1 2 3 4 5 6 7 8 9 10 11 12 13 14 15 16 17 18 19 20 21 22 23 24 25 26 27 28 29 30 31
000
FTUS42 KCAE 050414 AAD
TAFCUB
TAF AMD
KCUB 050414Z 0504/0524 05004KT 3SM -RA BR SCT007 OVC013
      WS020/18040KT
      TEMPO 0504/0508 2SM RA BR BKN005 OVC010
     FM051100 VRB03KT 3SM -RA BR OVC006
     FM051400 01003KT 3SM -RA BR OVC003
     FM051800 03005KT 4SM -RA BR OVC020=

USA.gov is the U.S. government's official web portal to all federal, state and local government web resources and services.